| time (UTC) | temp C | wind direction | speed KPH | gust KPH | rain 1hr cm | rain 24hr cm | rain mn cm | humidity % | barometer mb |
| 20260509150515 | 8 | 0 | 8.0 | 22.5 | 0.00 | 0.00 | 0.00 | 35 | 1018.9 |
| 20260509145516 | 8 | 0 | 4.8 | 16.1 | 0.00 | 0.00 | 0.00 | 37 | 1019.1 |
| 20260509144515 | 8 | 0 | 8.0 | 20.9 | 0.00 | 0.00 | 0.00 | 39 | 1019.2 |
| 20260509143515 | 7 | 0 | 8.0 | 22.5 | 0.00 | 0.00 | 0.00 | 40 | 1019.1 |
| 20260509142515 | 7 | 45 | 16.1 | 35.4 | 0.00 | 0.00 | 0.00 | 39 | 1018.4 |
| 20260509141516 | 7 | 45 | 11.3 | 25.7 | 0.00 | 0.00 | 0.00 | 39 | 1019.2 |
| 20260509140516 | 6 | 45 | 8.0 | 20.9 | 0.00 | 0.00 | 0.00 | 39 | 1018.4 |
| 20260509135535 | 6 | 68 | 8.0 | 20.9 | 0.00 | 0.00 | 0.00 | 39 | 1018.5 |
| 20260509134516 | 6 | 45 | 14.5 | 27.4 | 0.00 | 0.00 | 0.00 | 41 | 1018.5 |
| 20260509133516 | 5 | 45 | 9.7 | 17.7 | 0.00 | 0.00 | 0.00 | 43 | 1018.4 |
| 20260509132515 | 5 | 68 | 8.0 | 19.3 | 0.00 | 0.00 | 0.00 | 44 | 1018.4 |
| 20260509131515 | 5 | 68 | 4.8 | 11.3 | 0.00 | 0.00 | 0.00 | 44 | 1018.2 |
| 20260509130515 | 5 | 45 | 4.8 | 16.1 | 0.00 | 0.00 | 0.00 | 45 | 1018.1 |
| 20260509125515 | 5 | 0 | 6.4 | 16.1 | 0.00 | 0.00 | 0.00 | 45 | 1018.0 |
| 20260509124517 | 5 | 0 | 3.2 | 12.9 | 0.00 | 0.00 | 0.00 | 48 | 1018.5 |
| 20260509123517 | 5 | 45 | 4.8 | 9.7 | 0.00 | 0.00 | 0.00 | 48 | 1019.0 |
| 20260509122517 | 5 | 23 | 6.4 | 16.1 | 0.00 | 0.00 | 0.00 | 49 | 1018.9 |
| 20260509121517 | 5 | 113 | 1.6 | 6.4 | 0.00 | 0.00 | 0.00 | 50 | 1019.5 |
| 20260509120517 | 5 | 23 | 3.2 | 6.4 | 0.00 | 0.00 | 0.00 | 49 | 1020.0 |
| 20260509115537 | 5 | 45 | 4.8 | 8.0 | 0.00 | 0.00 | 0.00 | 50 | 1020.2 |
| 20260509114517 | 5 | 68 | 3.2 | 11.3 | 0.00 | 0.00 | 0.00 | 50 | 1020.2 |
| 20260509113517 | 5 | 0.0 | 3.2 | 0.00 | 0.00 | 0.00 | 50 | 1020.3 | |
| 20260509112517 | 5 | 90 | 8.0 | 17.7 | 0.00 | 0.00 | 0.00 | 50 | 1020.1 |
| 20260509111517 | 6 | 45 | 6.4 | 24.1 | 0.00 | 0.00 | 0.00 | 49 | 1020.8 |
| 20260509110517 | 6 | 0 | 6.4 | 16.1 | 0.00 | 0.00 | 0.00 | 49 | 1020.8 |
| 20260509105517 | 6 | 0 | 6.4 | 12.9 | 0.00 | 0.00 | 0.00 | 49 | 1020.8 |
| 20260509104537 | 6 | 45 | 9.7 | 22.5 | 0.00 | 0.00 | 0.00 | 48 | 1020.9 |
| 20260509103517 | 6 | 0 | 9.7 | 17.7 | 0.00 | 0.00 | 0.00 | 48 | 1020.6 |
| 20260509102517 | 6 | 0 | 11.3 | 25.7 | 0.00 | 0.00 | 0.00 | 48 | 1020.4 |
| 20260509101517 | 6 | 0 | 8.0 | 20.9 | 0.00 | 0.00 | 0.00 | 48 | 1019.9 |
| 20260509100517 | 6 | 0 | 8.0 | 20.9 | 0.00 | 0.00 | 0.00 | 48 | 1019.8 |
| 20260509095516 | 6 | 0 | 11.3 | 25.7 | 0.00 | 0.00 | 0.00 | 48 | 1020.0 |
| 20260509094517 | 6 | 0 | 11.3 | 27.4 | 0.00 | 0.00 | 0.00 | 48 | 1020.2 |
| 20260509093516 | 6 | 0 | 11.3 | 24.1 | 0.00 | 0.00 | 0.00 | 48 | 1020.1 |
| 20260509092517 | 6 | 0 | 11.3 | 22.5 | 0.00 | 0.00 | 0.00 | 48 | 1020.1 |
| 20260509091517 | 6 | 0 | 11.3 | 24.1 | 0.00 | 0.00 | 0.00 | 47 | 1019.5 |
| 20260509090537 | 7 | 0 | 11.3 | 27.4 | 0.00 | 0.00 | 0.00 | 45 | 1020.3 |
| 20260509085517 | 7 | 0 | 12.9 | 24.1 | 0.00 | 0.00 | 0.00 | 42 | 1020.0 |
| 20260509084516 | 7 | 0 | 9.7 | 25.7 | 0.00 | 0.00 | 0.00 | 42 | 1019.8 |
| 20260509083517 | 7 | 0 | 9.7 | 22.5 | 0.00 | 0.00 | 0.00 | 43 | 1019.8 |
| 20260509082517 | 7 | 0 | 9.7 | 20.9 | 0.00 | 0.00 | 0.00 | 44 | 1019.8 |
| 20260509081516 | 7 | 0 | 12.9 | 27.4 | 0.00 | 0.00 | 0.00 | 45 | 1020.0 |
| 20260509080536 | 7 | 0 | 11.3 | 27.4 | 0.00 | 0.00 | 0.00 | 44 | 1020.4 |
| 20260509075517 | 7 | 0 | 12.9 | 29.0 | 0.00 | 0.00 | 0.00 | 44 | 1020.6 |
| 20260509074517 | 7 | 0 | 11.3 | 37.0 | 0.00 | 0.00 | 0.00 | 43 | 1019.4 |
| 20260509073537 | 7 | 0 | 11.3 | 24.1 | 0.00 | 0.00 | 0.00 | 43 | 1019.7 |
| 20260509072516 | 7 | 0 | 9.7 | 29.0 | 0.00 | 0.00 | 0.00 | 43 | 1019.9 |
| 20260509071516 | 7 | 23 | 8.0 | 19.3 | 0.00 | 0.00 | 0.00 | 42 | 1019.9 |
| 20260509070516 | 7 | 0 | 3.2 | 11.3 | 0.00 | 0.00 | 0.00 | 42 | 1019.9 |
| 20260509065516 | 7 | 0 | 4.8 | 22.5 | 0.00 | 0.00 | 0.00 | 42 | 1019.9 |
| 20260509064516 | 7 | 293 | 4.8 | 12.9 | 0.00 | 0.00 | 0.00 | 44 | 1019.3 |
| 20260509063536 | 7 | 338 | 3.2 | 12.9 | 0.00 | 0.00 | 0.00 | 43 | 1019.3 |
| 20260509062517 | 8 | 45 | 8.0 | 17.7 | 0.00 | 0.00 | 0.00 | 40 | 1019.7 |
| 20260509061516 | 7 | 68 | 6.4 | 14.5 | 0.00 | 0.00 | 0.00 | 43 | 1019.2 |
| 20260509060516 | 7 | 0.0 | 1.6 | 0.00 | 0.00 | 0.00 | 51 | 1019.2 | |
| 20260509055537 | 6 | 270 | 1.6 | 6.4 | 0.00 | 0.00 | 0.00 | 56 | 1018.8 |
| 20260509054537 | 6 | 270 | 3.2 | 4.8 | 0.00 | 0.00 | 0.00 | 62 | 1018.4 |
| 20260509053537 | 6 | 270 | 1.6 | 3.2 | 0.00 | 0.00 | 0.00 | 69 | 1018.6 |
| 20260509052517 | 6 | 270 | 1.6 | 3.2 | 0.00 | 0.00 | 0.00 | 70 | 1018.9 |
| 20260509051517 | 6 | 0.0 | 3.2 | 0.00 | 0.00 | 0.00 | 70 | 1019.0 | |
| 20260509050516 | 6 | 270 | 3.2 | 4.8 | 0.00 | 0.00 | 0.00 | 69 | 1019.1 |
| 20260509045536 | 6 | 270 | 1.6 | 4.8 | 0.00 | 0.00 | 0.00 | 70 | 1019.3 |
| 20260509044517 | 6 | 0.0 | 0.0 | 0.00 | 0.00 | 0.00 | 70 | 1018.8 | |
| 20260509043537 | 6 | 270 | 1.6 | 3.2 | 0.00 | 0.00 | 0.00 | 70 | 1019.1 |
| 20260509042517 | 6 | 270 | 1.6 | 4.8 | 0.00 | 0.00 | 0.00 | 69 | 1019.3 |
| 20260509041536 | 6 | 270 | 1.6 | 6.4 | 0.00 | 0.00 | 0.00 | 69 | 1019.4 |
| 20260509040517 | 6 | 270 | 4.8 | 6.4 | 0.00 | 0.00 | 0.00 | 68 | 1019.5 |
| 20260509035536 | 6 | 0.0 | 3.2 | 0.00 | 0.00 | 0.00 | 68 | 1019.8 | |
| 20260509034516 | 6 | 270 | 3.2 | 4.8 | 0.00 | 0.00 | 0.00 | 68 | 1019.2 |
| 20260509033516 | 7 | 270 | 3.2 | 4.8 | 0.00 | 0.00 | 0.00 | 67 | 1019.2 |
| 20260509032516 | 6 | 270 | 1.6 | 4.8 | 0.00 | 0.00 | 0.00 | 67 | 1019.4 |
| 20260509031516 | 7 | 270 | 4.8 | 9.7 | 0.00 | 0.00 | 0.00 | 67 | 1019.3 |
| 20260509030516 | 7 | 0.0 | 0.0 | 0.00 | 0.00 | 0.00 | 67 | 1019.7 | |
| 20260509025516 | 7 | 0.0 | 0.0 | 0.00 | 0.00 | 0.00 | 67 | 1019.6 | |
| 20260509024517 | 7 | 0.0 | 0.0 | 0.00 | 0.00 | 0.00 | 66 | 1018.8 | |
| 20260509023536 | 7 | 0.0 | 1.6 | 0.00 | 0.00 | 0.00 | 66 | 1018.8 | |
| 20260509022516 | 7 | 0.0 | 0.0 | 0.00 | 0.00 | 0.00 | 66 | 1018.6 | |
| 20260509021516 | 7 | 0.0 | 0.0 | 0.00 | 0.00 | 0.00 | 66 | 1018.1 | |
| 20260509020516 | 7 | 0.0 | 0.0 | 0.00 | 0.00 | 0.00 | 65 | 1018.0 | |
| 20260509015516 | 7 | 0.0 | 4.8 | 0.00 | 0.00 | 0.00 | 65 | 1018.0 | |
| 20260509014516 | 8 | 225 | 1.6 | 4.8 | 0.00 | 0.00 | 0.00 | 64 | 1018.5 |
| 20260509013516 | 8 | 225 | 1.6 | 8.0 | 0.00 | 0.00 | 0.00 | 63 | 1018.4 |
| 20260509012516 | 8 | 203 | 1.6 | 6.4 | 0.00 | 0.00 | 0.00 | 62 | 1018.9 |
| 20260509011536 | 9 | 0.0 | 4.8 | 0.00 | 0.00 | 0.00 | 62 | 1018.8 | |
| 20260509010516 | 9 | 225 | 1.6 | 6.4 | 0.00 | 0.00 | 0.00 | 61 | 1018.7 |
| 20260509005516 | 9 | 225 | 3.2 | 6.4 | 0.00 | 0.00 | 0.00 | 61 | 1018.7 |
| 20260509004516 | 9 | 225 | 3.2 | 6.4 | 0.00 | 0.00 | 0.00 | 59 | 1018.6 |
| 20260509003516 | 10 | 270 | 1.6 | 8.0 | 0.00 | 0.00 | 0.00 | 58 | 1018.5 |
| 20260509002516 | 10 | 270 | 1.6 | 9.7 | 0.00 | 0.00 | 0.00 | 57 | 1018.6 |
| 20260509001516 | 11 | 248 | 9.7 | 20.9 | 0.00 | 0.00 | 0.00 | 53 | 1018.9 |
| 20260509000516 | 11 | 270 | 3.2 | 9.7 | 0.00 | 0.00 | 0.00 | 55 | 1018.9 |
| 20260508235516 | 11 | 248 | 3.2 | 9.7 | 0.00 | 0.00 | 0.00 | 52 | 1019.8 |
| 20260508234516 | 13 | 248 | 3.2 | 14.5 | 0.00 | 0.00 | 0.00 | 48 | 1020.4 |
| 20260508233516 | 13 | 203 | 1.6 | 8.0 | 0.00 | 0.00 | 0.00 | 49 | 1021.0 |
| 20260508232516 | 13 | 180 | 1.6 | 4.8 | 0.00 | 0.00 | 0.00 | 49 | 1021.2 |
| 20260508231516 | 13 | 203 | 1.6 | 9.7 | 0.00 | 0.00 | 0.00 | 51 | 1021.2 |
| 20260508230556 | 12 | 203 | 1.6 | 6.4 | 0.00 | 0.00 | 0.00 | 52 | 1020.6 |
| 20260508225516 | 14 | 180 | 1.6 | 6.4 | 0.00 | 0.00 | 0.00 | 49 | 1021.4 |
| 20260508224535 | 13 | 203 | 1.6 | 8.0 | 0.00 | 0.00 | 0.00 | 51 | 1021.3 |
| 20260508223515 | 13 | 203 | 3.2 | 12.9 | 0.00 | 0.00 | 0.00 | 49 | 1021.4 |
| 20260508222515 | 13 | 203 | 3.2 | 12.9 | 0.00 | 0.00 | 0.00 | 52 | 1021.4 |
| 20260508221516 | 13 | 158 | 3.2 | 11.3 | 0.00 | 0.00 | 0.00 | 51 | 1021.7 |
| 20260508220515 | 13 | 158 | 3.2 | 12.9 | 0.00 | 0.00 | 0.00 | 54 | 1021.0 |
| 20260508215516 | 13 | 225 | 3.2 | 9.7 | 0.00 | 0.00 | 0.00 | 54 | 1021.0 |
| 20260508214535 | 12 | 203 | 1.6 | 9.7 | 0.00 | 0.00 | 0.00 | 52 | 1020.5 |
| 20260508213516 | 13 | 180 | 3.2 | 9.7 | 0.00 | 0.00 | 0.00 | 53 | 1021.9 |
| 20260508212515 | 13 | 203 | 4.8 | 16.1 | 0.00 | 0.00 | 0.00 | 53 | 1021.4 |
| 20260508211515 | 12 | 203 | 4.8 | 14.5 | 0.00 | 0.00 | 0.00 | 53 | 1021.6 |
| 20260508210515 | 12 | 225 | 3.2 | 9.7 | 0.00 | 0.00 | 0.00 | 53 | 1021.8 |
| 20260508205515 | 12 | 203 | 3.2 | 12.9 | 0.00 | 0.03 | 0.00 | 54 | 1021.8 |
| 20260508204515 | 11 | 203 | 3.2 | 16.1 | 0.00 | 0.03 | 0.00 | 57 | 1021.4 |
| 20260508203515 | 12 | 203 | 6.4 | 16.1 | 0.00 | 0.03 | 0.00 | 52 | 1022.1 |
| 20260508202515 | 11 | 203 | 3.2 | 12.9 | 0.00 | 0.05 | 0.00 | 54 | 1021.8 |
| 20260508201517 | 12 | 0 | 8.0 | 22.5 | 0.00 | 0.08 | 0.00 | 43 | 1021.9 |
| 20260508200517 | 12 | 0 | 8.0 | 22.5 | 0.00 | 0.10 | 0.00 | 32 | 1022.1 |
| 20260508195517 | 12 | 0 | 6.4 | 19.3 | 0.00 | 0.15 | 0.00 | 36 | 1022.1 |
| 20260508194517 | 12 | 0 | 6.4 | 17.7 | 0.00 | 0.20 | 0.00 | 37 | 1022.1 |
| 20260508193517 | 12 | 68 | 12.9 | 24.1 | 0.00 | 0.28 | 0.00 | 32 | 1021.6 |
| 20260508192517 | 11 | 0 | 9.7 | 20.9 | 0.00 | 0.36 | 0.00 | 36 | 1021.6 |
| 20260508191517 | 10 | 0 | 12.9 | 25.7 | 0.00 | 0.41 | 0.00 | 34 | 1021.0 |
| 20260508190517 | 10 | 0 | 20.9 | 33.8 | 0.00 | 0.48 | 0.00 | 33 | 1021.1 |
| 20260508185517 | 11 | 0 | 6.4 | 17.7 | 0.00 | 0.58 | 0.00 | 35 | 1021.2 |
| 20260508184517 | 10 | 68 | 11.3 | 25.7 | 0.00 | 0.64 | 0.00 | 35 | 1020.4 |
| 20260508183517 | 10 | 0 | 12.9 | 27.4 | 0.00 | 0.69 | 0.00 | 34 | 1021.3 |
| 20260508182517 | 10 | 68 | 9.7 | 24.1 | 0.00 | 0.76 | 0.00 | 34 | 1021.3 |
| 20260508181517 | 9 | 0 | 11.3 | 25.7 | 0.00 | 0.84 | 0.00 | 35 | 1020.8 |
| 20260508180517 | 10 | 0 | 11.3 | 25.7 | 0.00 | 0.89 | 0.00 | 34 | 1022.1 |
| 20260508175517 | 10 | 45 | 6.4 | 19.3 | 0.00 | 0.89 | 0.00 | 38 | 1022.4 |
| 20260508174517 | 9 | 68 | 11.3 | 25.7 | 0.00 | 0.89 | 0.00 | 37 | 1021.7 |
| 20260508173517 | 9 | 23 | 4.8 | 19.3 | 0.00 | 0.91 | 0.00 | 40 | 1021.8 |
| 20260508172517 | 9 | 68 | 11.3 | 25.7 | 0.00 | 0.91 | 0.00 | 40 | 1021.9 |
| 20260508171517 | 8 | 0 | 14.5 | 29.0 | 0.00 | 0.91 | 0.00 | 39 | 1021.9 |
| 20260508170557 | 9 | 0 | 9.7 | 33.8 | 0.00 | 0.91 | 0.00 | 43 | 1022.1 |
| 20260508165517 | 8 | 90 | 17.7 | 37.0 | 0.00 | 0.91 | 0.00 | 42 | 1022.1 |
| 20260508164516 | 8 | 0 | 8.0 | 20.9 | 0.00 | 0.91 | 0.00 | 44 | 1021.7 |
| 20260508163517 | 8 | 0 | 14.5 | 29.0 | 0.00 | 0.91 | 0.00 | 44 | 1021.0 |
| 20260508162517 | 8 | 0 | 11.3 | 27.4 | 0.00 | 0.91 | 0.00 | 44 | 1021.0 |
| 20260508161516 | 7 | 0 | 17.7 | 40.2 | 0.00 | 0.91 | 0.00 | 44 | 1020.4 |
| 20260508160517 | 7 | 45 | 11.3 | 30.6 | 0.00 | 0.91 | 0.00 | 46 | 1020.6 |
| 20260508155517 | 7 | 0 | 12.9 | 27.4 | 0.00 | 0.91 | 0.00 | 47 | 1020.4 |
| 20260508154517 | 7 | 0 | 14.5 | 30.6 | 0.00 | 0.91 | 0.00 | 47 | 1020.3 |
| 20260508153537 | 7 | 0 | 9.7 | 25.7 | 0.00 | 0.91 | 0.00 | 49 | 1019.7 |
| 20260508152537 | 6 | 0 | 9.7 | 22.5 | 0.00 | 0.91 | 0.00 | 49 | 1019.2 |
| 20260508151517 | 6 | 0 | 17.7 | 37.0 | 0.00 | 0.91 | 0.00 | 48 | 1019.3 |